#timestamp,LO_Frequency,Hit,StdDev 
1700618415.0,286047010.3,N
1700618415.9,286047010.3,N
1700618435.7,286047010.4,N
1700618455.6,286047009.8,Y
1700618475.4,286047002.1,P
1700618495.3,286047000.7,N
1700618515.1,286046999.7,N
1700618516.0,286046999.7,N
1700618535.8,286047002.1,N
1700618555.7,286047001.8,N
1700618575.5,286047001.5,N
1700618595.3,286047002.3,N
1700618615.2,286047004.4,N
1700618635.0,286047001.7,N
1700618635.9,286047001.7,N
1700618655.8,286047000.2,N
1700618675.6,286047000.5,N
1700618695.4,286046999.7,N
1700618715.3,286047001.6,N
1700618735.1,286047002.3,N
1700618755.8,286046999.8,N
1700618775.7,286047002.7,N
1700618795.5,286047002.7,N
1700618815.4,286047000.0,N
1700618835.2,286047002.4,N
1700618855.0,286047003.7,N
1700618855.9,286047003.7,N
1700618875.8,286047003.0,N
1700618895.6,286047004.4,N
1700618915.4,286047002.5,N
1700618935.3,286046999.9,N
1700618955.1,286047002.3,N
1700618975.9,286047001.2,N
1700618995.7,286046999.2,N
1700619015.5,286047002.4,N
1700619035.4,286047003.6,N
1700619055.2,286047006.0,Y
1700619075.0,286047001.8,P
1700619075.9,286047001.8,P
1700619095.8,286047004.0,P
1700619115.6,286047003.1,Y
1700619135.5,286047002.2,P
1700619155.3,286047002.6,P
1700619175.1,286047001.8,P
1700619195.9,286047001.7,Y
1700619215.7,286047001.0,P
1700619235.6,286046998.4,N
1700619255.4,286047000.7,N
1700619275.2,286046998.1,N
1700619295.1,286047000.7,N
1700619296.0,286047000.7,N
1700619315.8,286046999.5,N
1700619335.6,286046995.0,Y
1700619355.5,286046997.5,P
1700619375.3,286046997.8,N
1700619395.2,286046995.7,P
1700619415.9,286046995.4,N
1700619435.7,286046995.4,N
1700619455.6,286046995.2,N
1700619475.4,286046995.3,N
1700619495.2,286046995.4,N
1700619515.1,286046994.9,Y
1700619516.0,286046994.9,P
1700619535.8,286047001.2,N
1700619555.7,286046998.1,N
1700619575.5,286046998.3,N
1700619595.3,286047001.1,N
1700619615.2,286046998.6,N
1700619635.0,286046999.3,N
1700619635.9,286046999.3,N
1700619655.7,286046998.8,N
1700619675.6,286046999.6,N
1700619695.4,286046996.6,N
1700619715.3,286046996.7,N
1700619735.1,286046996.9,N
1700619736.0,286046996.9,N
1700619755.8,286046997.3,N
1700619775.7,286046998.0,N
1700619795.5,286046997.2,N
1700619815.3,286046996.8,N
1700619835.2,286046999.6,N
1700619855.0,286046997.2,N
1700619855.9,286046997.2,N
1700619875.8,286046998.4,N
1700619895.6,286047000.3,N
1700619915.4,286047000.6,N
1700619935.3,286047000.8,N
1700619955.1,286046998.3,N
1700619975.8,286046999.4,N
1700619995.7,286046999.3,N
1700620015.5,286046999.2,N
1700620035.4,286046999.2,N
1700620055.2,286046999.3,N
1700620075.0,286046996.5,N
1700620075.9,286046996.5,N
1700620095.8,286046996.6,N
1700620115.6,286046997.6,N
1700620135.5,286046997.5,N
1700620155.3,286046996.5,N
1700620175.1,286046999.4,N
1700620195.9,286046999.6,N
1700620215.7,286046999.2,N
1700620235.5,286046998.4,N
1700620255.4,286046998.8,N
1700620275.2,286046999.1,N
1700620295.1,286046999.4,N
1700620296.0,286046999.4,N
1700620315.8,286046999.2,N
1700620335.6,286046998.8,N
1700620355.5,286046999.6,N
1700620375.3,286046999.3,N
1700620395.2,286046999.1,N
1700620415.9,286046999.3,N
1700620435.7,286046996.7,N
1700620455.6,286046996.9,N
1700620475.4,286046996.9,N
1700620495.2,286046997.2,N
1700620515.1,286046995.3,Y
1700620516.0,286046995.3,P
1700620535.8,286046999.1,N
1700620555.7,286046996.6,N
1700620575.5,286046994.9,Y
1700620595.3,286046998.7,P
1700620615.2,286047001.1,N
1700620635.0,286047000.9,N
1700620635.9,286047000.9,N
1700620655.7,286046999.9,N
1700620675.6,286047001.2,N
1700620695.4,286046999.1,N
1700620715.3,286046999.6,N
1700620735.1,286046998.8,N
1700620736.0,286046998.8,N
1700620755.8,286046998.7,N
1700620775.7,286046998.4,N
1700620795.5,286046998.2,N
1700620815.3,286046998.7,N
1700620835.2,286046995.1,Y
1700620855.0,286046999.2,P
1700620855.9,286046999.2,P
1700620875.8,286046999.6,P
1700620895.6,286046999.6,N
1700620915.4,286046999.3,Y
1700620935.3,286047000.9,P
1700620955.1,286047001.1,N
1700620975.9,286047066.6,P
1700620995.7,286047062.3,N
1700621015.5,286047061.3,N
1700621035.4,286047060.6,N
1700621055.2,286047062.6,N
1700621075.0,286047062.9,N
1700621075.9,286047062.9,N
1700621095.8,286047062.5,N
1700621115.6,286047065.0,N
1700621135.5,286047064.4,N
1700621155.3,286047064.4,N
1700621175.1,286047064.6,N
1700621195.9,286047062.2,N
1700621215.7,286047062.8,N
1700621235.5,286047063.6,N
1700621255.4,286047061.0,N
1700621275.2,286047061.7,N
1700621295.1,286047060.6,N
1700621296.0,286047060.6,N
1700621315.8,286047061.7,N
1700621335.6,286047063.1,Y
1700621355.5,286047006.5,P
1700621375.3,286047006.7,N
1700621395.2,286047006.4,N
1700621415.9,286047006.9,N
1700621435.7,286047004.6,N
1700621455.6,286047006.7,N
1700621475.4,286047004.8,N
1700621495.2,286047005.0,N
1700621515.1,286046945.2,Y
1700621516.0,286046945.2,P
1700621535.8,286046933.4,N
1700621555.7,286046931.4,N
1700621575.5,286046929.8,N
1700621595.3,286046932.3,N
1700621615.2,286046932.1,N
1700621635.0,286046931.6,N
1700621635.9,286046931.6,N
1700621655.8,286046931.1,N
1700621675.6,286046933.6,N
1700621695.4,286046933.5,N
1700621715.3,286046934.0,Y
1700621735.1,286046994.4,P
1700621755.9,286046994.5,N
1700621775.7,286046994.4,N
1700621795.5,286046992.2,N
1700621815.4,286046993.8,N
1700621835.2,286046995.6,N
1700621855.0,286046993.3,N
1700621855.9,286046993.3,N
1700621875.8,286046993.3,N
1700621895.6,286046993.8,N
1700621915.5,286046993.7,N
1700621935.3,286046995.6,N
1700621955.1,286046993.9,N
1700621975.9,286046732.6,Y
1700621995.7,286046746.5,P
